[[{"header":{"parameterUnit":"m.s-1","parameterCategory":2,"la1":30.2991,"la2":30.254,"lo1":-89.0895,"lo2":-89.0444,"dy":0.0017,"dx":0.0017,"nx":28,"ny":28,"refTime":"2024-07-06T21:00:00:Z","depth":"0","parameterNumber":2,"parameterNumberName":"U-component_of_CURRENTS"},"data":[0,0,0,0,0,0,0,0,0,0,0,0,0,0,0,0,0,0,0,0,0,0,0,0,0,0,0,0,0,0,0,0,0,0,0,0,0,0,0,0,0,0,0,0,0,0,0,0,0,0,0,0,0,0,0,0,0,0,0.4351,0.4353,0,0.4623,0.4626,0.463,0.4756,0.4754,0.4753,0.4752,0.4749,0.475,0.4751,0,0,0,0,0,0,0,0,0,0,0,0,0,0.4055,0.406,0.4351,0.4353,0.4356,0.4622,0.4627,0.4631,0.4756,0.4754,0.4753,0.4752,0.4748,0.475,0.4751,0,0,0,0,0,0,0,0,0,0,0,0,0,0.425,0.4062,0.435,0.4442,0.4452,0.4621,0.4627,0.4633,0.4756,0.4754,0.4752,0.4751,0.4748,0.475,0.4751,0.4796,0,0,0.4756,0.4756,0,0,0,0,0,0,0,0,0.4239,0.4262,0.4426,0.4436,0.4448,0.4644,0.4521,0.467,0.4756,0.4652,0.4752,0.475,0.4683,0.469,0.4763,0.4796,0.4796,0.4756,0.4757,0.4757,0.4758,0,0,0,0,0,0,0,0.4225,0.4252,0.4469,0.4429,0.4442,0.4509,0.4535,0.4553,0.4677,0.4661,0.4668,0.4682,0.4688,0.4762,0.4763,0.4796,0.4756,0.4757,0.4758,0.4759,0.4825,0.4825,0,0,0,0,0,0,0.4168,0.4239,0.446,0.4476,0.4325,0.4514,0.4544,0.4591,0.4683,0.4694,0.4683,0.4687,0.476,0.4761,0.4763,0.4774,0.4757,0.4759,0.476,0.4824,0.4825,0.4826,0,0,0,0,0,0,0.4161,0.4187,0.4449,0.4353,0.4389,0.4519,0.4573,0.4597,0.4677,0.4701,0.4709,0.4735,0.4759,0.4761,0.4778,0.4775,0.476,0.4761,0.4823,0.4824,0.4825,0.4823,0,0,0,0,0,0,0.4153,0.4184,0.4215,0.435,0.4392,0.4557,0.4574,0.4604,0.4683,0.4691,0.4748,0.4747,0.4758,0.4776,0.4779,0.4777,0.4762,0.4822,0.4823,0.4825,0.4822,0.4824,0.4826,0,0,0,0,0,0.4142,0.4188,0.4216,0.4242,0.4427,0.4558,0.4589,0.468,0.4686,0.4742,0.4759,0.4745,0.4787,0.4778,0.4782,0.478,0.4821,0.4823,0.4825,0.4821,0.4824,0.4826,0,0,0,0,0,0,0.4071,0.4209,0.4241,0.4326,0.4431,0.4575,0.4629,0.4685,0.4759,0.475,0.4764,0.4766,0.4788,0.4786,0.4775,0.4805,0.4799,0.4802,0.4795,0.4798,0.48,0.4921,0.4763,0,0,0,0,0,0.4067,0.4146,0.427,0.4338,0.4384,0.4507,0.4572,0.4639,0.471,0.4747,0.477,0.4785,0.4806,0.48,0.4831,0.484,0.4924,0.484,0.4842,0.4843,0.4946,0.5045,0.5066,0.4832,0.4832,0.4832,0,0,0.4052,0.4139,0.4181,0.4329,0.4415,0.4526,0.4547,0.465,0.474,0.4723,0.4816,0.4804,0.4817,0.4842,0.4847,0.4829,0.4945,0.4845,0.4846,0.4952,0.5049,0.5073,0.5094,0.4833,0.4833,0.4833,0,0,0.4083,0.4142,0.423,0.4322,0.4452,0.4535,0.4559,0.4695,0.4751,0.4831,0.4831,0.4838,0.4863,0.4887,0.4895,0.493,0.4967,0.4892,0.4982,0.5071,0.5093,0.5114,0.5216,0.5246,0.4872,0.4872,0.4872,0,0.4063,0.4205,0.4271,0.4383,0.4468,0.4535,0.4655,0.4731,0.4851,0.4886,0.4853,0.4931,0.4912,0.4971,0.4982,0.494,0.5006,0.4959,0.5078,0.51,0.5122,0.5222,0.5255,0.4872,0.4872,0.4872,0.4872,0,0.419,0.4292,0.4343,0.4514,0.4602,0.4713,0.4812,0.4877,0.4913,0.4976,0.5038,0.5034,0.5084,0.5039,0.503,0.514,0.5143,0.508,0.5077,0.5146,0.5246,0.528,0.4872,0.4872,0.4872,0.4872,0,0,0.4224,0.44,0.4428,0.4516,0.469,0.4777,0.489,0.5027,0.5085,0.5145,0.5234,0.5258,0.5243,0.5261,0.5212,0.5282,0.544,0.5253,0.5257,0.5369,0.567,0.5554,0.558,0.5384,0.5391,0.5396,0.5668,0,0.4331,0.4523,0.46,0.4782,0.4899,0.4971,0.5066,0.5167,0.5218,0.5294,0.5307,0.5354,0.5323,0.5309,0.5394,0.5426,0.554,0.5377,0.5583,0.5592,0.5489,0.5619,0.5319,0.5527,0.5702,0.5708,0.5712,0,0.4486,0.4596,0.4778,0.4925,0.4977,0.5067,0.5214,0.5304,0.5395,0.5425,0.5491,0.5491,0.5608,0.5542,0.5758,0.5651,0.5724,0.5753,0.5761,0.5709,0.5542,0.5495,0.5584,0.5373,0.5766,0.5762,0.5758,0,0.4541,0.4732,0.4869,0.4936,0.5101,0.5163,0.5234,0.5335,0.538,0.5501,0.5526,0.5668,0.57,0.5855,0.5929,0.586,0.6166,0.6045,0.6041,0.6032,0.5861,0.5825,0.5796,0.6283,0.6282,0.6281,0.6281,0,0.4677,0.4787,0.4884,0.4975,0.508,0.5186,0.5275,0.5351,0.5434,0.5481,0.5579,0.5638,0.5785,0.5928,0.6029,0.6164,0.6257,0.616,0.6124,0.5841,0.5802,0.5676,0.5599,0.6292,0.6289,0.6287,0.6286,0,0.4735,0.482,0.4956,0.509,0.5114,0.5177,0.5246,0.5293,0.539,0.5461,0.5497,0.5648,0.5832,0.5991,0.6217,0.6242,0.6208,0.6421,0.609,0.6012,0.5741,0.5674,0.5624,0.5475,0.6469,0.6468,0.6467,0,0.4785,0.4867,0.4978,0.4998,0.5049,0.5121,0.5153,0.5256,0.5294,0.545,0.5482,0.5668,0.5771,0.6076,0.6171,0.6373,0.6188,0.6196,0.6013,0.5773,0.5675,0.5487,0.5351,0.5781,0.5775,0.577,0.5766,0,0.484,0.4859,0.4926,0.4964,0.4998,0.5018,0.5069,0.5083,0.5209,0.5276,0.5372,0.5466,0.5735,0.5762,0.6005,0.6083,0.5838,0.6094,0.5927,0.5257,0.4976,0.4792,0.5571,0.572,0.5725,0.5728,0.5731,0.5733,0.4803,0.4823,0.4863,0.4878,0.4898,0.4864,0.4824,0.4885,0.4906,0.4949,0.5176,0.5241,0.5356,0.5618,0.5663,0.5482,0.5566,0.5313,0.5301,0.517,0.4874,0.5578,0.5609,0.5612,0.5616,0.5618,0.5621,0,0.4714,0.4733,0.4759,0.4737,0.4683,0.4738,0.472,0.4642,0.4597,0.4741,0.4814,0.4844,0.4844,0.4917,0.4863,0.4714,0.4526,0.4582,0.4229,0.4173,0.4867,0.4675,0.4398,0.4398,0.4398,0.4399,0.4399,0.4399,0.4664,0.4639,0.4647,0.4508,0.448,0.4336,0.4283,0.4202,0.4237,0.4161,0.4163,0.4283,0.439,0.4364,0.415,0.4055,0.3757,0.3598,0.3671,0.4101,0.4165,0.4227,0.4024,0.3616,0.3615,0.2749,0.2742,0.2737]},{"header":{"parameterUnit":"m.s-1","parameterCategory":2,"la1":30.2991,"la2":30.254,"lo1":-89.0895,"lo2":-89.0444,"dy":0.0017,"dx":0.0017,"nx":28,"ny":28,"refTime":"2024-07-06T21:00:00:Z","depth":"0","parameterNumber":3,"parameterNumberName":"V-component_of_CURRENTS"},"data":[0,0,0,0,0,0,0,0,0,0,0,0,0,0,0,0,0,0,0,0,0,0,0,0,0,0,0,0,0,0,0,0,0,0,0,0,0,0,0,0,0,0,0,0,0,0,0,0,0,0,0,0,0,0,0,0,0,0,-0.0009,-0.0009,0,-0.0075,-0.0076,-0.0077,-0.015,-0.0151,-0.0151,-0.0152,-0.0247,-0.0248,-0.025,0,0,0,0,0,0,0,0,0,0,0,0,0,-0.001,-0.001,-0.0009,-0.0009,-0.0009,-0.0075,-0.0076,-0.0078,-0.015,-0.0151,-0.0151,-0.0152,-0.0246,-0.0248,-0.0251,0,0,0,0,0,0,0,0,0,0,0,0,0,-0.0041,-0.001,-0.0009,-0.005,-0.0054,-0.0075,-0.0076,-0.0078,-0.015,-0.0151,-0.0151,-0.0152,-0.0245,-0.0248,-0.0251,-0.0251,0,0,-0.026,-0.0261,0,0,0,0,0,0,0,0,-0.0039,-0.0041,-0.0043,-0.0047,-0.0051,-0.0101,-0.0111,-0.0136,-0.0149,-0.0119,-0.0152,-0.0153,-0.0196,-0.0203,-0.0221,-0.0256,-0.026,-0.026,-0.0262,-0.0263,-0.0264,0,0,0,0,0,0,0,-0.0037,-0.0039,-0.004,-0.0044,-0.0048,-0.0087,-0.0092,-0.0117,-0.0156,-0.0121,-0.0125,-0.0125,-0.02,-0.0218,-0.0223,-0.0261,-0.026,-0.0263,-0.0265,-0.0266,-0.0273,-0.0271,0,0,0,0,0,0,-0.0014,-0.0037,-0.0038,-0.0042,-0.0042,-0.0086,-0.0092,-0.0088,-0.0155,-0.0165,-0.0124,-0.0128,-0.0212,-0.022,-0.0227,-0.0196,-0.0263,-0.0266,-0.0268,-0.0274,-0.0273,-0.0271,0,0,0,0,0,0,-0.0014,-0.0013,-0.0035,-0.0037,-0.0042,-0.0084,-0.008,-0.0089,-0.0101,-0.0156,-0.0167,-0.0125,-0.0213,-0.0223,-0.0244,-0.0201,-0.0267,-0.027,-0.0276,-0.0274,-0.0272,-0.0155,0,0,0,0,0,0,-0.0013,-0.0013,0.0001,-0.0035,-0.0041,-0.0029,-0.0078,-0.0089,-0.0097,-0.0103,-0.016,-0.0171,-0.0215,-0.024,-0.0247,-0.0206,-0.0272,-0.0278,-0.0275,-0.0272,-0.0161,-0.0149,-0.0139,0,0,0,0,0,-0.0013,0.0027,0.0002,0.0003,-0.0021,-0.0027,-0.0033,-0.0071,-0.0096,-0.0088,-0.0136,-0.0169,-0.0226,-0.0241,-0.025,-0.0209,-0.028,-0.0276,-0.0273,-0.0166,-0.0152,-0.0139,0,0,0,0,0,0,0.0038,0.0022,-0.0005,0.0028,0.0005,-0.0037,-0.0021,-0.0058,-0.009,-0.0094,-0.016,-0.0173,-0.0171,-0.0207,-0.0223,-0.0202,-0.0253,-0.0251,-0.0169,-0.0156,-0.0145,-0.0093,-0.0275,0,0,0,0,0,0.0055,0.0077,0.0044,0.0069,0.0068,0.0021,0.0015,-0.0013,-0.0046,-0.0062,-0.0108,-0.0145,-0.0163,-0.0175,-0.0202,-0.0195,-0.0184,-0.0171,-0.016,-0.015,-0.0114,-0.0075,-0.0057,-0.0259,-0.0259,-0.0259,0,0,0.008,0.0077,0.0087,0.0081,0.0064,0.0074,0.0015,0.0022,0.0026,-0.0065,-0.0068,-0.011,-0.0154,-0.0148,-0.0148,-0.0173,-0.0084,-0.0146,-0.0137,-0.0105,-0.0069,-0.005,-0.0032,-0.0257,-0.0257,-0.0258,0,0,0.0152,0.0142,0.0183,0.0171,0.016,0.0131,0.0138,0.0098,0.0081,0.0066,0.0012,-0.0,-0.0047,-0.006,-0.0074,-0.0014,-0.0029,-0.0026,0.0074,0.0111,0.0129,0.0144,0.0202,0.0222,-0.0018,-0.0018,-0.0018,0,0.0183,0.0221,0.0193,0.0225,0.023,0.0163,0.0199,0.0174,0.0126,0.0146,0.0085,0.0068,0.0005,0.0053,0.0054,0.0015,0.0039,0.0025,0.0128,0.0144,0.0158,0.0213,0.0234,-0.0012,-0.0012,-0.0013,-0.0014,0,0.0281,0.0298,0.0328,0.0339,0.0343,0.0364,0.0328,0.033,0.0294,0.0277,0.0308,0.0227,0.0235,0.0199,0.0131,0.0211,0.0198,0.0137,0.01,0.0186,0.0238,0.0257,-0.0003,-0.0005,-0.0007,-0.0008,0,0,0.0393,0.0392,0.0404,0.0419,0.0404,0.0423,0.0449,0.0474,0.0535,0.0473,0.0563,0.0483,0.0464,0.0447,0.0377,0.0377,0.0463,0.03,0.0299,0.0371,0.0576,0.048,0.0492,0.0419,0.0423,0.0425,0.0579,0,0.0476,0.0538,0.0526,0.0588,0.0615,0.0581,0.0623,0.0639,0.0641,0.0708,0.0661,0.0702,0.0554,0.0572,0.0555,0.0507,0.0517,0.043,0.0473,0.0476,0.0389,0.0511,0.0437,0.056,0.0598,0.0601,0.0603,0,0.0586,0.061,0.0674,0.0713,0.0733,0.0768,0.0857,0.0885,0.0954,0.0968,0.1009,0.0977,0.1007,0.0842,0.0842,0.0798,0.0703,0.0634,0.0638,0.0526,0.0415,0.0475,0.0593,0.0328,0.0633,0.063,0.0628,0,0.0677,0.0725,0.0776,0.0784,0.0818,0.0876,0.0912,0.0982,0.1055,0.1158,0.1242,0.126,0.1298,0.1208,0.1048,0.097,0.1036,0.0916,0.0749,0.0743,0.0679,0.0659,0.0556,0.0907,0.0906,0.0906,0.0905,0,0.0766,0.0817,0.0827,0.0857,0.0969,0.0975,0.112,0.1163,0.1283,0.1428,0.1395,0.1517,0.1383,0.1383,0.12,0.1073,0.1172,0.082,0.0788,0.0715,0.0698,0.0458,0.034,0.0912,0.091,0.0909,0.0908,0,0.0849,0.0842,0.0916,0.0974,0.1004,0.1094,0.1226,0.1347,0.1438,0.1636,0.1688,0.1766,0.1784,0.1628,0.1517,0.1285,0.1009,0.1053,0.0984,0.0939,0.0488,0.038,0.0318,0.0229,0.0937,0.0935,0.0934,0,0.0887,0.0925,0.1,0.106,0.1092,0.1212,0.1312,0.1414,0.1553,0.179,0.1916,0.2001,0.2086,0.1917,0.1553,0.1297,0.1025,0.0982,0.0778,0.0498,0.0358,0.0269,0.0193,0.0764,0.0762,0.076,0.0758,0,0.0966,0.099,0.1047,0.116,0.1267,0.1394,0.1548,0.1678,0.1846,0.2037,0.2296,0.2396,0.2228,0.1972,0.156,0.1304,0.0791,0.0928,0.0672,0.0258,0.0132,0.0018,0.0638,0.0741,0.0743,0.0744,0.0745,0.0745,0.1025,0.1085,0.1152,0.1272,0.1396,0.1573,0.1709,0.1905,0.2153,0.2462,0.2548,0.2732,0.2276,0.1731,0.138,0.0603,0.0666,0.031,0.0229,0.0185,0.0008,0.0588,0.0605,0.0606,0.0606,0.0607,0.0608,0,0.1081,0.1145,0.126,0.1403,0.1558,0.1611,0.1865,0.2032,0.2339,0.263,0.286,0.2706,0.2124,0.1499,0.0496,-0.0017,-0.0188,-0.0295,-0.0445,-0.047,0.0076,-0.0035,-0.0199,-0.0198,-0.0198,-0.0198,-0.0198,-0.0197,0.111,0.121,0.127,0.1505,0.1628,0.1852,0.2007,0.2271,0.2509,0.283,0.2936,0.2987,0.2421,0.0758,-0.0417,-0.0675,-0.0958,-0.1038,-0.1128,-0.0819,-0.077,-0.0724,-0.0861,-0.1194,-0.1195,-0.167,-0.1675,-0.1679]}],[{"header":{"parameterUnit":"m.s-1","parameterCategory":2,"la1":30.2991,"la2":30.254,"lo1":-89.0895,"lo2":-89.0444,"dy":0.0017,"dx":0.0017,"nx":28,"ny":28,"refTime":"2024-07-06T21:00:00:Z","depth":"2","parameterNumber":2,"parameterNumberName":"U-component_of_CURRENTS"},"data":[0,0,0,0,0,0,0,0,0,0,0,0,0,0,0,0,0,0,0,0,0,0,0,0,0,0,0,0,0,0,0,0,0,0,0,0,0,0,0,0,0,0,0,0,0,0,0,0,0,0,0,0,0,0,0,0,0,0,0.3232,0.3233,0,0.3366,0.3368,0.337,0.3422,0.3421,0.342,0.342,0.3343,0.3342,0.334,0,0,0,0,0,0,0,0,0,0,0,0,0,0.3087,0.309,0.3232,0.3233,0.3234,0.3366,0.3368,0.337,0.3422,0.3421,0.342,0.3419,0.3343,0.3342,0.334,0,0,0,0,0,0,0,0,0,0,0,0,0,0.3182,0.309,0.3232,0.3273,0.3278,0.3365,0.3368,0.3371,0.3422,0.3421,0.342,0.3419,0.3344,0.3342,0.334,0.3349,0,0,0.3334,0.3333,0,0,0,0,0,0,0,0,0.3177,0.3188,0.3266,0.327,0.3276,0.3373,0.3289,0.3352,0.3422,0.3372,0.342,0.3418,0.3331,0.333,0.3367,0.3346,0.3342,0.3333,0.3332,0.3331,0.3331,0,0,0,0,0,0,0,0.317,0.3183,0.3289,0.3267,0.3273,0.3308,0.332,0.3302,0.3355,0.3376,0.3379,0.3388,0.3333,0.3369,0.3364,0.3341,0.3333,0.3332,0.333,0.333,0.3443,0.3447,0,0,0,0,0,0,0.3144,0.3176,0.3285,0.3293,0.3218,0.3311,0.3324,0.3346,0.336,0.3362,0.3389,0.339,0.3373,0.3367,0.3362,0.3457,0.3331,0.3329,0.3328,0.3438,0.3444,0.3448,0,0,0,0,0,0,0.314,0.3153,0.3279,0.3233,0.3251,0.3313,0.3338,0.3349,0.3397,0.3371,0.337,0.3426,0.3372,0.3364,0.3546,0.345,0.3328,0.3327,0.3433,0.344,0.3446,0.3592,0,0,0,0,0,0,0.3136,0.3151,0.3173,0.3232,0.3253,0.3334,0.3339,0.3352,0.3402,0.3405,0.3402,0.3394,0.337,0.3552,0.3544,0.3445,0.3325,0.3428,0.3436,0.3444,0.3582,0.3603,0.3621,0,0,0,0,0,0.313,0.3165,0.3174,0.3188,0.3277,0.3334,0.335,0.3392,0.3404,0.3432,0.3577,0.3395,0.3586,0.3562,0.355,0.3446,0.3424,0.3434,0.3443,0.3574,0.3599,0.362,0,0,0,0,0,0,0.3128,0.3175,0.3186,0.3237,0.3279,0.3342,0.3392,0.3405,0.3534,0.3576,0.3552,0.3561,0.3654,0.3585,0.3555,0.3509,0.3428,0.3436,0.353,0.3553,0.3572,0.3637,0.3323,0,0,0,0,0,0.3132,0.3163,0.3211,0.3252,0.3289,0.3343,0.3378,0.341,0.3517,0.3569,0.3583,0.3619,0.3677,0.3662,0.3704,0.3716,0.3724,0.3615,0.3634,0.365,0.3704,0.3755,0.3783,0.3479,0.3479,0.3479,0,0,0.3132,0.3172,0.3184,0.3252,0.3309,0.3356,0.3365,0.3443,0.3518,0.3538,0.3683,0.3721,0.3727,0.3793,0.38,0.3714,0.3746,0.3663,0.3676,0.3722,0.3768,0.3797,0.3823,0.3486,0.3485,0.3484,0,0,0.3172,0.3205,0.3255,0.3299,0.3383,0.3399,0.3418,0.3503,0.3593,0.3762,0.3795,0.3869,0.3902,0.3904,0.3906,0.4052,0.3895,0.395,0.4033,0.4081,0.4106,0.4129,0.4189,0.4215,0.3897,0.3897,0.3897,0,0.3172,0.3241,0.3278,0.3353,0.3389,0.3412,0.3475,0.3571,0.371,0.3824,0.3829,0.4006,0.396,0.4057,0.4107,0.4075,0.4112,0.3934,0.4105,0.4127,0.4148,0.4204,0.4231,0.3905,0.3904,0.3904,0.3903,0,0.3282,0.3311,0.3357,0.3429,0.3474,0.3533,0.3636,0.3726,0.3812,0.3911,0.4112,0.418,0.4272,0.418,0.4202,0.4262,0.4249,0.4169,0.404,0.4187,0.4237,0.4263,0.3917,0.3914,0.3912,0.391,0,0,0.3306,0.3402,0.341,0.3434,0.3522,0.3555,0.3713,0.3855,0.3981,0.413,0.4304,0.4408,0.4463,0.4479,0.4435,0.4422,0.4561,0.4355,0.4353,0.4407,0.4711,0.4466,0.447,0.4515,0.452,0.4524,0.4693,0,0.3366,0.3451,0.3512,0.3559,0.3591,0.3675,0.3795,0.3945,0.4106,0.428,0.4414,0.4564,0.4569,0.4596,0.4637,0.4594,0.4638,0.4526,0.4571,0.4574,0.4329,0.4493,0.4152,0.4253,0.4717,0.4721,0.4724,0,0.3425,0.3479,0.3553,0.3596,0.3634,0.3682,0.3855,0.3983,0.4254,0.442,0.4646,0.4763,0.4897,0.4815,0.4957,0.49,0.4872,0.4805,0.4807,0.4552,0.4376,0.4181,0.4281,0.4766,0.4763,0.476,0.4757,0,0.3358,0.3456,0.3499,0.3533,0.3643,0.3736,0.379,0.4032,0.4196,0.4509,0.4644,0.4909,0.4991,0.5081,0.5071,0.5036,0.5142,0.5052,0.4834,0.4816,0.4522,0.4467,0.516,0.5159,0.5159,0.5158,0.5158,0,0.333,0.3395,0.3477,0.3511,0.3623,0.3697,0.386,0.4022,0.4248,0.4417,0.4715,0.485,0.5055,0.5159,0.516,0.5108,0.5264,0.4922,0.4857,0.456,0.451,0.4935,0.4906,0.5165,0.5163,0.5162,0.5161,0,0.33,0.3349,0.3415,0.3526,0.3592,0.3673,0.3857,0.3957,0.4203,0.4419,0.4524,0.4842,0.498,0.5138,0.5199,0.5148,0.5118,0.5038,0.4688,0.4577,0.4759,0.4737,0.4881,0.4874,0.4868,0.4863,0.4859,0,0.3281,0.3285,0.3415,0.3447,0.3532,0.3659,0.3736,0.3957,0.4056,0.4369,0.4431,0.467,0.4805,0.4892,0.4826,0.4855,0.4974,0.4497,0.4336,0.4815,0.4739,0.4726,0.4712,0.4039,0.4028,0.402,0.4013,0,0.3213,0.3269,0.3328,0.3392,0.3468,0.3577,0.368,0.3754,0.3979,0.4123,0.4223,0.4337,0.4468,0.433,0.4384,0.433,0.4483,0.4312,0.4946,0.4112,0.4019,0.3944,0.3959,0.3936,0.3944,0.3949,0.3954,0.3957,0.3145,0.3166,0.317,0.3284,0.3366,0.3423,0.3447,0.351,0.3601,0.3703,0.3842,0.3873,0.3943,0.3819,0.3717,0.3676,0.3955,0.3815,0.3844,0.3882,0.3704,0.36,0.341,0.3414,0.3418,0.3421,0.3424,0,0.2964,0.3005,0.3026,0.3108,0.3139,0.3279,0.3352,0.3284,0.3271,0.3345,0.3345,0.3047,0.3027,0.3171,0.2975,0.2941,0.2947,0.2848,0.2861,0.2939,0.3008,0.2786,0.2249,0.2245,0.2241,0.2238,0,0,0.283,0.2802,0.2852,0.2853,0.2945,0.296,0.2984,0.289,0.2878,0.2663,0.2636,0.2797,0.3028,0.2549,0.2501,0.2367,0.2629,0.2273,0.3222,0.3313,0.3377,0.3576,0.3322,0,0,0,0,0]},{"header":{"parameterUnit":"m.s-1","parameterCategory":2,"la1":30.2991,"la2":30.254,"lo1":-89.0895,"lo2":-89.0444,"dy":0.0017,"dx":0.0017,"nx":28,"ny":28,"refTime":"2024-07-06T21:00:00:Z","depth":"2","parameterNumber":3,"parameterNumberName":"V-component_of_CURRENTS"},"data":[0,0,0,0,0,0,0,0,0,0,0,0,0,0,0,0,0,0,0,0,0,0,0,0,0,0,0,0,0,0,0,0,0,0,0,0,0,0,0,0,0,0,0,0,0,0,0,0,0,0,0,0,0,0,0,0,0,0,0.0028,0.0028,0,-0.0057,-0.0059,-0.0061,-0.0153,-0.0153,-0.0154,-0.0154,-0.0397,-0.0402,-0.0408,0,0,0,0,0,0,0,0,0,0,0,0,0,-0.0025,-0.0024,0.0028,0.0028,0.0027,-0.0057,-0.0059,-0.0061,-0.0153,-0.0153,-0.0154,-0.0155,-0.0395,-0.0402,-0.0409,0,0,0,0,0,0,0,0,0,0,0,0,0,-0.0054,-0.0023,0.0028,-0.0022,-0.0026,-0.0056,-0.0059,-0.0062,-0.0153,-0.0153,-0.0154,-0.0155,-0.0392,-0.0401,-0.041,-0.0451,0,0,-0.0437,-0.0441,0,0,0,0,0,0,0,0,-0.0052,-0.0053,-0.0014,-0.0018,-0.0023,-0.0087,-0.0166,-0.0196,-0.0153,-0.0115,-0.0154,-0.0155,-0.0301,-0.0318,-0.0343,-0.0463,-0.0473,-0.0438,-0.0444,-0.0448,-0.045,0,0,0,0,0,0,0,-0.005,-0.005,-0.0015,-0.0014,-0.002,-0.0086,-0.009,-0.0173,-0.0213,-0.0118,-0.0123,-0.0117,-0.0306,-0.0334,-0.035,-0.0477,-0.0438,-0.0446,-0.0452,-0.0455,-0.0556,-0.0554,0,0,0,0,0,0,-0.0012,-0.0047,-0.0012,-0.0017,-0.0029,-0.0083,-0.0089,-0.0074,-0.0209,-0.0226,-0.0116,-0.0121,-0.0318,-0.0339,-0.0359,-0.0396,-0.0447,-0.0456,-0.0461,-0.0559,-0.0556,-0.0553,0,0,0,0,0,0,-0.0013,-0.0008,-0.0009,-0.0028,-0.0031,-0.0079,-0.0063,-0.0075,-0.0098,-0.0204,-0.0227,-0.0125,-0.032,-0.0346,-0.0457,-0.0407,-0.046,-0.0468,-0.0562,-0.0558,-0.0554,-0.0484,0,0,0,0,0,0,-0.0014,-0.0007,0.0008,-0.0024,-0.0028,-0.0013,-0.0062,-0.0075,-0.0089,-0.0096,-0.0219,-0.0242,-0.0322,-0.0444,-0.0466,-0.042,-0.0475,-0.0566,-0.056,-0.0555,-0.0489,-0.0478,-0.0468,0,0,0,0,0,-0.0015,0.0025,0.001,0.0014,-0.0002,-0.0011,-0.002,-0.0065,-0.0088,-0.0091,-0.0201,-0.0238,-0.0423,-0.0452,-0.0479,-0.0433,-0.0568,-0.0562,-0.0556,-0.0494,-0.048,-0.0468,0,0,0,0,0,0,0.0006,0.0019,0.0002,0.0042,0.0021,-0.0023,-0.0022,-0.0052,-0.0137,-0.0155,-0.0265,-0.0297,-0.0357,-0.0402,-0.0431,-0.0434,-0.0476,-0.0475,-0.0419,-0.0407,-0.0396,-0.0362,-0.0483,0,0,0,0,0,0.0023,0.0054,0.0042,0.0068,0.0068,0.0022,0.0012,-0.0018,-0.0086,-0.0121,-0.0211,-0.0286,-0.0348,-0.039,-0.0457,-0.0499,-0.0523,-0.046,-0.0449,-0.044,-0.0423,-0.0447,-0.0439,-0.0533,-0.0533,-0.0533,0,0,0.0037,0.0049,0.0064,0.0074,0.0052,0.0051,0.0011,0.0007,-0.0025,-0.0138,-0.022,-0.0274,-0.0353,-0.0397,-0.0418,-0.0436,-0.0419,-0.0432,-0.0425,-0.0412,-0.044,-0.0432,-0.0424,-0.0528,-0.0529,-0.053,0,0,0.0082,0.0093,0.013,0.0121,0.0112,0.0082,0.009,0.0046,-0.0005,-0.0083,-0.0151,-0.018,-0.03,-0.0326,-0.036,-0.0321,-0.0368,-0.0311,-0.0237,-0.0261,-0.0255,-0.0249,-0.0251,-0.0246,-0.0297,-0.0297,-0.0297,0,0.0096,0.0133,0.0133,0.0155,0.0142,0.0104,0.0108,0.006,-0.0026,-0.0075,-0.0097,-0.0187,-0.0255,-0.0274,-0.0254,-0.0296,-0.032,-0.0295,-0.0251,-0.0246,-0.0242,-0.0245,-0.0241,-0.0293,-0.0294,-0.0294,-0.0294,0,0.0163,0.0174,0.0195,0.0204,0.0191,0.0192,0.0139,0.0094,0.0038,-0.0012,-0.0052,-0.011,-0.0148,-0.0142,-0.0207,-0.0173,-0.0202,-0.0248,-0.0295,-0.0229,-0.0235,-0.0232,-0.0287,-0.0289,-0.029,-0.0291,0,0,0.0234,0.0239,0.0245,0.0229,0.021,0.0203,0.0149,0.0087,0.0042,0.0013,-0.002,-0.0049,-0.0035,-0.0062,-0.008,-0.0084,-0.0072,-0.0145,-0.0148,-0.0162,-0.0116,-0.0202,-0.0207,-0.0131,-0.0131,-0.013,-0.0128,0,0.0273,0.0295,0.0297,0.0291,0.0278,0.0225,0.0171,0.0107,0.0037,-0.0009,-0.0003,-0.0028,-0.0016,-0.0006,0.0,-0.0067,-0.0064,-0.0067,-0.0162,-0.0164,-0.0263,-0.0207,-0.0163,-0.0164,-0.0125,-0.0125,-0.0125,0,0.0325,0.0326,0.0306,0.0278,0.0274,0.0266,0.017,0.0129,0.005,0.0002,0.0029,0.0019,0.0068,0.0049,0.0045,0.0034,-0.0022,-0.0064,-0.0067,-0.0169,-0.0245,-0.0224,-0.0161,-0.0121,-0.0121,-0.0121,-0.0121,0,0.03,0.0336,0.03,0.0291,0.0249,0.0222,0.0218,0.0124,0.0084,0.0042,0.0052,0.0072,0.0135,0.0078,0.0028,0.0026,-0.0024,-0.0046,-0.016,-0.0166,-0.0155,-0.0162,-0.0068,-0.0068,-0.0068,-0.0068,-0.0068,0,0.0285,0.0259,0.0292,0.0254,0.0231,0.0229,0.0184,0.0141,0.0128,0.015,0.011,0.0179,0.0141,0.0115,0.0032,-0.0046,-0.001,-0.0129,-0.0171,-0.0127,-0.0131,-0.0122,-0.0128,-0.0068,-0.0068,-0.0068,-0.0068,0,0.0173,0.0185,0.0162,0.018,0.0184,0.0167,0.0202,0.0209,0.0181,0.0228,0.0251,0.0272,0.0283,0.0188,0.0099,-0.0011,-0.0124,-0.018,-0.0116,-0.0152,-0.0238,-0.024,-0.0258,-0.0261,-0.0264,-0.0266,-0.0267,0,0.0086,0.0068,0.0107,0.014,0.014,0.0152,0.0178,0.0191,0.0253,0.0319,0.0396,0.0409,0.0515,0.0324,0.0079,-0.01,-0.0131,-0.0249,-0.0244,-0.0218,-0.0258,-0.0256,-0.0254,-0.0177,-0.0178,-0.0179,-0.0179,0,-0.0021,0.0005,0.0025,0.0095,0.015,0.0199,0.0295,0.036,0.0444,0.0583,0.0803,0.0895,0.0681,0.054,0.0153,0.0002,-0.0221,-0.0272,-0.0256,-0.0165,-0.0151,-0.0187,-0.0186,-0.0186,-0.0185,-0.0185,-0.0185,-0.0184,-0.0053,-0.0024,0.0073,0.0134,0.02,0.0338,0.0454,0.0663,0.0877,0.1147,0.1131,0.1288,0.0911,0.0525,0.0173,-0.0239,-0.0206,-0.0326,-0.0319,-0.0312,-0.0332,-0.0327,-0.0396,-0.0396,-0.0397,-0.0397,-0.0397,0,-0.0004,0.0066,0.0146,0.0275,0.0403,0.0387,0.0607,0.0829,0.1234,0.1402,0.1634,0.1355,0.1101,0.0663,0.0073,-0.0291,-0.029,-0.0406,-0.0305,-0.0298,-0.0291,-0.0307,-0.0365,-0.0366,-0.0366,-0.0367,0,0,0.0053,0.0181,0.0246,0.0476,0.0552,0.0758,0.0914,0.1275,0.1488,0.1799,0.1852,0.1759,0.1233,0.0802,0.0301,-0.0009,-0.0064,-0.008,-0.007,0.0116,0.0128,-0.0217,-0.0231,0,0,0,0,0]}],[{"header":{"parameterUnit":"m.s-1","parameterCategory":2,"la1":30.2991,"la2":30.254,"lo1":-89.0895,"lo2":-89.0444,"dy":0.0017,"dx":0.0017,"nx":28,"ny":28,"refTime":"2024-07-06T21:00:00:Z","depth":"4","parameterNumber":2,"parameterNumberName":"U-component_of_CURRENTS"},"data":[0,0,0,0,0,0,0,0,0,0,0,0,0,0,0,0,0,0,0,0,0,0,0,0,0,0,0,0,0,0,0,0,0,0,0,0,0,0,0,0,0,0,0,0,0,0,0,0,0,0,0,0,0,0,0,0,0,0,0.1502,0.1503,0,0.1497,0.1496,0.1494,0.1552,0.1555,0.1558,0.1561,0.1464,0.1458,0.1453,0,0,0,0,0,0,0,0,0,0,0,0,0,0.1422,0.1422,0.1502,0.1503,0.1505,0.1498,0.1496,0.1494,0.1551,0.1555,0.1559,0.1563,0.1466,0.1459,0.1452,0,0,0,0,0,0,0,0,0,0,0,0,0,0.1424,0.1423,0.1501,0.1546,0.1551,0.1498,0.1496,0.1493,0.155,0.1555,0.156,0.1564,0.1468,0.146,0.1451,0.1302,0,0,0.1426,0.1422,0,0,0,0,0,0,0,0,0.1424,0.1424,0.1538,0.1543,0.1549,0.1546,0.1433,0.1431,0.1549,0.1531,0.1561,0.1567,0.1491,0.1481,0.1444,0.1297,0.1293,0.1425,0.142,0.1416,0.1414,0,0,0,0,0,0,0,0.1424,0.1424,0.1481,0.154,0.1547,0.1521,0.1525,0.1431,0.1468,0.1533,0.1542,0.1569,0.1492,0.1452,0.1443,0.1292,0.1425,0.1418,0.1412,0.1409,0.1455,0.1461,0,0,0,0,0,0,0.1463,0.1424,0.1482,0.1483,0.1518,0.152,0.1524,0.1527,0.1471,0.1474,0.1565,0.1572,0.1464,0.1452,0.144,0.1522,0.1416,0.1408,0.1403,0.1449,0.1457,0.1464,0,0,0,0,0,0,0.146,0.1466,0.1482,0.147,0.1473,0.1519,0.152,0.1525,0.1556,0.15,0.1498,0.1603,0.1468,0.1451,0.1402,0.1509,0.1404,0.1397,0.1442,0.1451,0.146,0.1517,0,0,0,0,0,0,0.1457,0.1464,0.1478,0.1472,0.1476,0.1492,0.1517,0.1522,0.1571,0.1581,0.1529,0.1522,0.147,0.1415,0.1394,0.1496,0.139,0.1434,0.1446,0.1457,0.1508,0.1528,0.1545,0,0,0,0,0,0.1454,0.1479,0.1477,0.1486,0.1492,0.1494,0.1491,0.1527,0.1569,0.1573,0.1543,0.1527,0.1483,0.1406,0.1382,0.1485,0.1428,0.1443,0.1456,0.1499,0.1524,0.1544,0,0,0,0,0,0,0.1464,0.1488,0.1487,0.1519,0.1521,0.1513,0.1543,0.1553,0.1527,0.1556,0.1497,0.1484,0.1505,0.149,0.141,0.156,0.1496,0.1506,0.1539,0.1561,0.1579,0.1611,0.1383,0,0,0,0,0,0.1465,0.1481,0.1492,0.1515,0.1534,0.1536,0.1548,0.1567,0.1554,0.1553,0.1517,0.1527,0.1529,0.1537,0.1508,0.1513,0.1508,0.1613,0.1632,0.1647,0.1672,0.1718,0.1739,0.151,0.151,0.151,0,0,0.1479,0.1493,0.1506,0.1517,0.1529,0.1528,0.1554,0.1595,0.1585,0.1536,0.152,0.1538,0.1539,0.157,0.1593,0.1577,0.1716,0.1665,0.1675,0.1694,0.1734,0.1755,0.1774,0.152,0.1518,0.1516,0,0,0.1503,0.1528,0.1544,0.1546,0.1582,0.1568,0.1597,0.1604,0.1612,0.1568,0.1598,0.1683,0.1614,0.1692,0.1709,0.1819,0.1786,0.1869,0.199,0.2033,0.205,0.2065,0.2081,0.2097,0.1907,0.1907,0.1908,0,0.1513,0.1513,0.1549,0.1559,0.1561,0.1596,0.1592,0.1588,0.1572,0.1585,0.1586,0.1662,0.1683,0.179,0.1889,0.1858,0.1858,0.1875,0.2047,0.2062,0.2076,0.2089,0.2106,0.1912,0.1911,0.1911,0.191,0,0.1528,0.1529,0.1552,0.1551,0.1563,0.1569,0.1581,0.1602,0.1618,0.1618,0.1706,0.1748,0.1836,0.1908,0.192,0.2104,0.2061,0.2024,0.196,0.2101,0.2109,0.2124,0.1918,0.1917,0.1915,0.1914,0,0,0.1501,0.1544,0.1543,0.1535,0.155,0.1558,0.1575,0.1584,0.1629,0.1665,0.1728,0.1863,0.1969,0.2014,0.2108,0.2208,0.2341,0.2198,0.2198,0.2163,0.2415,0.2255,0.2255,0.231,0.2313,0.2316,0.2375,0,0.1471,0.1471,0.15,0.1486,0.1477,0.1522,0.1526,0.1567,0.1599,0.1667,0.1809,0.1893,0.1981,0.2087,0.2207,0.229,0.2388,0.2327,0.2333,0.2334,0.213,0.2271,0.2328,0.2386,0.239,0.2392,0.2394,0,0.1416,0.1431,0.1411,0.1435,0.1445,0.1462,0.1513,0.1532,0.165,0.1693,0.1853,0.1932,0.2161,0.2189,0.24,0.2348,0.2427,0.2473,0.2474,0.2317,0.2204,0.2229,0.2421,0.2419,0.2417,0.2415,0.2414,0,0.1302,0.1339,0.1316,0.132,0.1376,0.1414,0.1466,0.156,0.1611,0.1762,0.1851,0.2023,0.2182,0.2277,0.2433,0.2423,0.259,0.2557,0.2476,0.2463,0.2551,0.2535,0.2701,0.2701,0.27,0.27,0.27,0,0.1173,0.1156,0.1289,0.1268,0.1294,0.1386,0.1445,0.1513,0.1676,0.1758,0.1919,0.2035,0.2222,0.2336,0.2423,0.2491,0.2578,0.2526,0.2484,0.2579,0.2566,0.256,0.2543,0.2702,0.2702,0.2702,0.2701,0,0.0986,0.1056,0.1056,0.1177,0.1221,0.126,0.1433,0.15,0.1672,0.1805,0.1874,0.2091,0.2232,0.235,0.2505,0.2489,0.2538,0.254,0.263,0.2585,0.2384,0.2371,0.245,0.2445,0.2441,0.2438,0.2435,0,0.0866,0.0857,0.0982,0.1033,0.1091,0.12,0.1269,0.1453,0.1549,0.1814,0.1877,0.2088,0.2206,0.229,0.2411,0.2479,0.2492,0.2472,0.2474,0.2416,0.2368,0.2361,0.2353,0.2429,0.2428,0.2426,0.2425,0,0.0683,0.0755,0.0789,0.0886,0.0979,0.1062,0.1211,0.1275,0.1501,0.1676,0.1847,0.1956,0.2115,0.2217,0.2283,0.2337,0.2443,0.2431,0.244,0.2442,0.2391,0.2345,0.2343,0.2411,0.2413,0.2415,0.2415,0,0.0579,0.0585,0.068,0.0752,0.0849,0.0927,0.1017,0.1188,0.1311,0.1632,0.1665,0.1899,0.2076,0.2146,0.2195,0.2229,0.2241,0.2183,0.2207,0.2224,0.2127,0.2028,0.1929,0,0,0,0,0,0.0491,0.0514,0.0562,0.0638,0.0721,0.0792,0.0977,0.1101,0.1322,0.1398,0.1548,0.1681,0.1832,0.195,0.1954,0.2099,0.2223,0.2092,0.2159,0.2333,0.2349,0.2259,0,0,0,0,0,0,0.0453,0.0488,0.0514,0.0526,0.0566,0.0654,0.0775,0.0937,0.1024,0.1262,0.1365,0.1548,0.1723,0.1795,0.1903,0.1937,0.1944,0.2235,0.2231,0.2324,0.2338,0.2352,0.2264,0,0,0,0,0]},{"header":{"parameterUnit":"m.s-1","parameterCategory":2,"la1":30.2991,"la2":30.254,"lo1":-89.0895,"lo2":-89.0444,"dy":0.0017,"dx":0.0017,"nx":28,"ny":28,"refTime":"2024-07-06T21:00:00:Z","depth":"4","parameterNumber":3,"parameterNumberName":"V-component_of_CURRENTS"},"data":[0,0,0,0,0,0,0,0,0,0,0,0,0,0,0,0,0,0,0,0,0,0,0,0,0,0,0,0,0,0,0,0,0,0,0,0,0,0,0,0,0,0,0,0,0,0,0,0,0,0,0,0,0,0,0,0,0,0,0.0189,0.0188,0,0.0202,0.0203,0.0203,0.0186,0.0185,0.0183,0.0182,0.0165,0.0166,0.0166,0,0,0,0,0,0,0,0,0,0,0,0,0,0.0121,0.0123,0.0189,0.0188,0.0188,0.0202,0.0203,0.0203,0.0186,0.0185,0.0183,0.0182,0.0165,0.0166,0.0166,0,0,0,0,0,0,0,0,0,0,0,0,0,0.0149,0.0124,0.0189,0.0177,0.0176,0.0202,0.0203,0.0203,0.0186,0.0185,0.0183,0.0181,0.0165,0.0166,0.0166,0.0204,0,0,0.0169,0.0169,0,0,0,0,0,0,0,0,0.0147,0.0152,0.0179,0.0178,0.0177,0.0186,0.0172,0.02,0.0187,0.0188,0.0182,0.0181,0.0167,0.0168,0.0182,0.0203,0.0203,0.0169,0.017,0.017,0.017,0,0,0,0,0,0,0,0.0146,0.0151,0.0199,0.0179,0.0178,0.0162,0.0165,0.0178,0.019,0.0187,0.0185,0.0179,0.0167,0.0181,0.0181,0.0202,0.0169,0.017,0.017,0.0171,0.0078,0.0075,0,0,0,0,0,0,0.0138,0.015,0.0198,0.0199,0.0152,0.0164,0.0168,0.0189,0.019,0.0188,0.018,0.0178,0.018,0.018,0.018,0.0154,0.017,0.0171,0.0171,0.008,0.0077,0.0074,0,0,0,0,0,0,0.0137,0.0143,0.0198,0.0169,0.0174,0.0167,0.0191,0.019,0.0192,0.0184,0.0182,0.0181,0.0179,0.0179,0.0176,0.0156,0.0171,0.0172,0.0084,0.0079,0.0075,0.0148,0,0,0,0,0,0,0.0135,0.0144,0.0158,0.0169,0.0175,0.0205,0.0192,0.0191,0.0189,0.0186,0.0185,0.0182,0.0178,0.0175,0.0177,0.0157,0.0172,0.0088,0.0082,0.0077,0.0149,0.0147,0.0144,0,0,0,0,0,0.0134,0.0161,0.016,0.0165,0.0196,0.0205,0.0207,0.0199,0.0191,0.0196,0.0187,0.0182,0.0137,0.0176,0.0178,0.0158,0.009,0.0084,0.0077,0.0151,0.0147,0.0144,0,0,0,0,0,0,0.0138,0.0162,0.016,0.0194,0.0192,0.02,0.021,0.02,0.0202,0.02,0.0188,0.0186,0.0162,0.014,0.0182,0.0099,0.0095,0.0089,0.0149,0.0146,0.0144,0.0158,0.0173,0,0,0,0,0,0.0147,0.0176,0.0182,0.0205,0.0212,0.0212,0.0214,0.0207,0.0207,0.0206,0.0205,0.0174,0.0139,0.0131,0.0106,0.0099,0.0057,0.0064,0.0061,0.006,0.0063,-0.0028,-0.0036,0.0052,0.0052,0.0052,0,0,0.015,0.0169,0.0182,0.0207,0.0216,0.0233,0.0211,0.022,0.0227,0.0205,0.0224,0.0183,0.0131,0.0108,0.0091,0.0093,0.0011,0.0052,0.0052,0.0056,-0.0035,-0.0043,-0.005,0.0047,0.0048,0.0049,0,0,0.0176,0.0197,0.0229,0.0236,0.0245,0.0247,0.0246,0.0255,0.0253,0.0262,0.0218,0.017,0.0155,0.0102,0.0072,0.0036,0.0001,0.0002,0.0019,-0.0069,-0.0075,-0.0082,-0.013,-0.0141,0.0002,0.0003,0.0003,0,0.0178,0.023,0.0233,0.0264,0.0281,0.0255,0.0288,0.0281,0.0281,0.0283,0.0268,0.0185,0.0148,0.0084,0.0056,0.0038,-0.0009,0.0055,-0.0066,-0.0073,-0.008,-0.0129,-0.0142,0.0005,0.0005,0.0005,0.0004,0,0.0231,0.0266,0.0288,0.0326,0.0337,0.0361,0.0353,0.0359,0.0351,0.0335,0.0284,0.0218,0.0164,0.0115,0.0087,-0.0007,-0.002,-0.0049,-0.0036,-0.0083,-0.0133,-0.0148,0.0009,0.0008,0.0007,0.0007,0,0,0.0264,0.0317,0.0327,0.0362,0.038,0.0401,0.0413,0.0423,0.043,0.0383,0.0375,0.0268,0.0216,0.017,0.0094,0.0004,-0.0085,-0.0042,-0.0047,-0.005,-0.0257,-0.0204,-0.0215,-0.0132,-0.0135,-0.0137,-0.0262,0,0.0311,0.0393,0.0401,0.0466,0.0512,0.0501,0.0519,0.0511,0.0491,0.0473,0.0361,0.0319,0.0237,0.0204,0.0096,-0.0047,-0.0125,-0.0047,-0.0246,-0.0251,-0.0167,-0.0232,-0.0146,-0.0273,-0.0276,-0.0279,-0.0281,0,0.0378,0.0424,0.0513,0.0565,0.0585,0.0615,0.0654,0.066,0.0607,0.0586,0.0502,0.0417,0.0273,0.0213,-0.0043,0.0009,-0.0113,-0.0225,-0.0233,-0.0218,-0.0227,-0.0229,-0.0308,-0.0306,-0.0304,-0.0302,-0.03,0,0.0444,0.0509,0.0593,0.0614,0.0658,0.0701,0.0722,0.0706,0.0717,0.0655,0.0643,0.0465,0.0378,0.0177,-0.0049,-0.0052,-0.0322,-0.035,-0.0414,-0.041,-0.0444,-0.0437,-0.0516,-0.0516,-0.0516,-0.0515,-0.0515,0,0.0516,0.0579,0.0637,0.0686,0.0771,0.0778,0.0854,0.0841,0.0818,0.081,0.0703,0.0633,0.0359,0.0178,-0.0029,-0.0262,-0.0305,-0.0418,-0.0449,-0.0412,-0.04,-0.0453,-0.0444,-0.052,-0.0519,-0.0518,-0.0517,0,0.0583,0.0624,0.0717,0.0786,0.0815,0.0881,0.095,0.098,0.0958,0.0939,0.0921,0.0742,0.0503,0.0252,-0.008,-0.0214,-0.0448,-0.0509,-0.0422,-0.0445,-0.0479,-0.0466,-0.06,-0.06,-0.0599,-0.0599,-0.0598,0,0.0635,0.0692,0.0797,0.0853,0.0896,0.0991,0.1046,0.1054,0.1071,0.0986,0.0961,0.0764,0.0618,0.0208,-0.0062,-0.0405,-0.0451,-0.0538,-0.0545,-0.0476,-0.0494,-0.0481,-0.0469,-0.0598,-0.0597,-0.0597,-0.0597,0,0.0702,0.0742,0.0802,0.0923,0.1007,0.1099,0.1169,0.118,0.1156,0.1143,0.0983,0.0777,0.0527,0.0204,-0.0035,-0.0295,-0.0473,-0.0534,-0.0538,-0.0545,-0.0475,-0.049,-0.0478,-0.0596,-0.0596,-0.0596,-0.0596,0,0.0735,0.0786,0.0862,0.0963,0.107,0.1146,0.1193,0.1189,0.1194,0.1086,0.1019,0.0755,0.0591,0.0261,0.0013,-0.0205,-0.027,-0.0332,-0.0347,-0.0352,-0.024,-0.0112,-0.0157,0,0,0,0,0,0.0751,0.0797,0.0892,0.0986,0.1091,0.1158,0.1235,0.126,0.1231,0.1128,0.1075,0.0838,0.0473,0.031,0.0096,0.0018,-0.0302,-0.0235,-0.038,-0.0586,-0.0588,-0.0494,0,0,0,0,0,0,0.0752,0.0832,0.0877,0.0978,0.1051,0.116,0.1215,0.1204,0.1151,0.1089,0.0895,0.0805,0.045,0.0584,0.0091,0.0026,-0.0087,-0.0403,-0.0407,-0.0585,-0.0587,-0.0588,-0.0492,0,0,0,0,0]}]]